| time (UTC) | temp F | wind direction | speed MPH | gust MPH | rain 1hr in | rain 24hr in | rain mn in | humidity % | barometer mb |
| 20260506084553 | 63 | 310 | 0.0 | 1.0 | 0.00 | 0.00 | 0.00 | 79 | 1010.0 |
| 20260506084052 | 63 | 318 | 0.0 | 1.0 | 0.00 | 0.00 | 0.00 | 79 | 1010.0 |
| 20260506083553 | 63 | 269 | 0.0 | 1.0 | 0.00 | 0.00 | 0.00 | 79 | 1010.0 |
| 20260506083053 | 63 | 211 | 0.0 | 1.0 | 0.00 | 0.00 | 0.00 | 79 | 1010.0 |
| 20260506082129 | 63 | 280 | 0.0 | 1.0 | 0.00 | 0.00 | 0.00 | 78 | 1010.0 |
| 20260506081552 | 63 | 249 | 1.0 | 1.0 | 0.00 | 0.00 | 0.00 | 78 | 1010.0 |
| 20260506081052 | 63 | 0 | 0.0 | 0.0 | 0.00 | 0.00 | 0.00 | 78 | 1010.0 |
| 20260506080553 | 64 | 202 | 0.0 | 0.0 | 0.00 | 0.00 | 0.00 | 77 | 1010.0 |
| 20260506073053 | 64 | 0 | 0.0 | 0.0 | 0.00 | 0.00 | 0.00 | 76 | 1010.0 |
| 20260506072554 | 64 | 267 | 0.0 | 0.0 | 0.00 | 0.00 | 0.00 | 75 | 1010.0 |
| 20260506072053 | 64 | 167 | 1.0 | 1.0 | 0.00 | 0.00 | 0.00 | 75 | 1010.0 |
| 20260506071552 | 64 | 162 | 1.0 | 1.0 | 0.00 | 0.00 | 0.00 | 75 | 1010.0 |
| 20260506071052 | 64 | 295 | 1.0 | 2.0 | 0.00 | 0.00 | 0.00 | 74 | 1010.0 |
| 20260506070552 | 64 | 352 | 1.0 | 2.0 | 0.00 | 0.00 | 0.00 | 74 | 1010.0 |
| 20260506062052 | 65 | 0 | 0.0 | 0.0 | 0.00 | 0.00 | 0.00 | 70 | 1010.0 |
| 20260506061552 | 65 | 205 | 1.0 | 2.0 | 0.00 | 0.00 | 0.00 | 70 | 1010.0 |
| 20260506061052 | 65 | 0 | 0.0 | 0.0 | 0.00 | 0.00 | 0.00 | 70 | 1010.0 |
| 20260506060553 | 65 | 0 | 0.0 | 0.0 | 0.00 | 0.00 | 0.00 | 69 | 1010.0 |
| 20260506051052 | 66 | 0 | 0.0 | 0.0 | 0.00 | 0.00 | 0.00 | 67 | 1011.0 |
| 20260506050552 | 66 | 83 | 1.0 | 2.0 | 0.00 | 0.00 | 0.00 | 67 | 1011.0 |
| 20260506045053 | 66 | 0 | 0.0 | 0.0 | 0.00 | 0.00 | 0.00 | 66 | 1011.0 |
| 20260506044553 | 67 | 0 | 0.0 | 0.0 | 0.00 | 0.00 | 0.00 | 65 | 1011.0 |
| 20260506044052 | 67 | 0 | 0.0 | 0.0 | 0.00 | 0.00 | 0.00 | 65 | 1011.0 |
| 20260506043552 | 67 | 220 | 1.0 | 1.0 | 0.00 | 0.00 | 0.00 | 65 | 1011.0 |
| 20260506043053 | 67 | 177 | 0.0 | 0.0 | 0.00 | 0.00 | 0.00 | 64 | 1011.0 |
| 20260506042552 | 67 | 148 | 1.0 | 2.0 | 0.00 | 0.00 | 0.00 | 64 | 1011.0 |
| 20260506042052 | 67 | 92 | 0.0 | 1.0 | 0.00 | 0.00 | 0.00 | 64 | 1011.0 |
| 20260506041552 | 67 | 284 | 0.0 | 1.0 | 0.00 | 0.00 | 0.00 | 63 | 1011.0 |
| 20260506041053 | 67 | 252 | 1.0 | 1.0 | 0.00 | 0.00 | 0.00 | 63 | 1011.0 |
| 20260506040552 | 67 | 282 | 1.0 | 3.0 | 0.00 | 0.00 | 0.00 | 63 | 1011.0 |
| 20260506040053 | 68 | 215 | 0.0 | 1.0 | 0.00 | 0.00 | 0.00 | 63 | 1011.0 |
| 20260506035552 | 68 | 192 | 1.0 | 1.0 | 0.00 | 0.00 | 0.02 | 62 | 1011.0 |
| 20260506035052 | 68 | 212 | 1.0 | 1.0 | 0.00 | 0.00 | 0.02 | 62 | 1011.0 |
| 20260506034553 | 68 | 241 | 1.0 | 1.0 | 0.00 | 0.00 | 0.02 | 62 | 1011.0 |
| 20260506034053 | 68 | 207 | 2.0 | 2.0 | 0.00 | 0.00 | 0.02 | 61 | 1011.0 |
| 20260506033553 | 68 | 236 | 1.0 | 2.0 | 0.00 | 0.00 | 0.02 | 62 | 1011.0 |
| 20260506033052 | 68 | 0 | 0.0 | 0.0 | 0.00 | 0.00 | 0.02 | 61 | 1011.0 |
| 20260506032552 | 68 | 299 | 1.0 | 1.0 | 0.00 | 0.00 | 0.02 | 62 | 1011.0 |
| 20260506032056 | 69 | 4 | 0.0 | 0.0 | 0.00 | 0.00 | 0.02 | 61 | 1011.0 |
| 20260506031555 | 69 | 162 | 1.0 | 2.0 | 0.00 | 0.00 | 0.02 | 61 | 1011.0 |
| 20260506031055 | 69 | 340 | 1.0 | 1.0 | 0.00 | 0.00 | 0.02 | 60 | 1011.0 |
| 20260506030555 | 69 | 322 | 1.0 | 2.0 | 0.00 | 0.00 | 0.02 | 60 | 1011.0 |
| 20260506030052 | 69 | 256 | 0.0 | 2.0 | 0.00 | 0.00 | 0.02 | 60 | 1011.0 |
| 20260506025553 | 69 | 309 | 1.0 | 2.0 | 0.00 | 0.00 | 0.02 | 60 | 1011.0 |
| 20260506025053 | 69 | 267 | 1.0 | 2.0 | 0.00 | 0.00 | 0.02 | 59 | 1011.0 |
| 20260506024552 | 69 | 328 | 0.0 | 1.0 | 0.00 | 0.00 | 0.02 | 60 | 1011.0 |
| 20260506024052 | 70 | 332 | 0.0 | 0.0 | 0.00 | 0.00 | 0.02 | 59 | 1011.0 |
| 20260506023553 | 70 | 255 | 0.0 | 1.0 | 0.00 | 0.00 | 0.02 | 58 | 1011.0 |
| 20260506023052 | 70 | 190 | 2.0 | 2.0 | 0.00 | 0.00 | 0.02 | 58 | 1011.0 |
| 20260506022552 | 70 | 265 | 2.0 | 5.0 | 0.00 | 0.00 | 0.02 | 58 | 1011.0 |
| 20260506022053 | 71 | 297 | 1.0 | 1.0 | 0.00 | 0.00 | 0.02 | 57 | 1010.0 |
| 20260506021553 | 71 | 227 | 1.0 | 2.0 | 0.00 | 0.00 | 0.02 | 56 | 1011.0 |
| 20260506021052 | 71 | 314 | 1.0 | 2.0 | 0.00 | 0.00 | 0.02 | 55 | 1011.0 |
| 20260506020553 | 71 | 5 | 1.0 | 2.0 | 0.00 | 0.00 | 0.02 | 55 | 1010.0 |
| 20260506020052 | 72 | 264 | 2.0 | 4.0 | 0.00 | 0.00 | 0.02 | 54 | 1010.0 |
| 20260506015552 | 72 | 256 | 2.0 | 5.0 | 0.00 | 0.00 | 0.02 | 53 | 1010.0 |
| 20260506015053 | 72 | 232 | 2.0 | 4.0 | 0.00 | 0.00 | 0.02 | 52 | 1010.0 |
| 20260506014553 | 72 | 259 | 2.0 | 2.0 | 0.00 | 0.00 | 0.02 | 52 | 1010.0 |
| 20260506014053 | 72 | 22 | 2.0 | 3.0 | 0.00 | 0.00 | 0.02 | 50 | 1010.0 |
| 20260506013553 | 73 | 261 | 1.0 | 2.0 | 0.00 | 0.00 | 0.02 | 49 | 1010.0 |
| 20260506013053 | 73 | 289 | 2.0 | 4.0 | 0.00 | 0.00 | 0.02 | 48 | 1010.0 |
| 20260506012553 | 73 | 283 | 2.0 | 4.0 | 0.00 | 0.00 | 0.02 | 47 | 1010.0 |
| 20260506012053 | 73 | 307 | 2.0 | 4.0 | 0.00 | 0.00 | 0.02 | 47 | 1010.0 |
| 20260506011553 | 73 | 243 | 1.0 | 2.0 | 0.00 | 0.00 | 0.02 | 47 | 1010.0 |
| 20260506011052 | 74 | 257 | 2.0 | 3.0 | 0.00 | 0.00 | 0.02 | 47 | 1010.0 |
| 20260506010554 | 74 | 222 | 0.0 | 1.0 | 0.00 | 0.00 | 0.02 | 46 | 1010.0 |
| 20260506010052 | 74 | 245 | 1.0 | 2.0 | 0.00 | 0.00 | 0.02 | 47 | 1010.0 |
| 20260506005553 | 74 | 253 | 2.0 | 3.0 | 0.00 | 0.00 | 0.02 | 46 | 1010.0 |
| 20260506005053 | 74 | 297 | 2.0 | 3.0 | 0.00 | 0.00 | 0.02 | 46 | 1010.0 |
| 20260506004552 | 74 | 285 | 1.0 | 2.0 | 0.00 | 0.00 | 0.02 | 47 | 1009.0 |
| 20260506004052 | 74 | 346 | 0.0 | 0.0 | 0.00 | 0.00 | 0.02 | 46 | 1009.0 |
| 20260506003552 | 74 | 354 | 2.0 | 3.0 | 0.00 | 0.00 | 0.02 | 45 | 1009.0 |
| 20260506003053 | 75 | 39 | 1.0 | 2.0 | 0.00 | 0.00 | 0.02 | 45 | 1009.0 |
| 20260506002553 | 75 | 266 | 1.0 | 2.0 | 0.00 | 0.00 | 0.02 | 44 | 1009.0 |
| 20260506002052 | 75 | 232 | 2.0 | 3.0 | 0.00 | 0.00 | 0.02 | 44 | 1009.0 |
| 20260506001552 | 75 | 215 | 2.0 | 2.0 | 0.00 | 0.00 | 0.02 | 43 | 1009.0 |
| 20260506001054 | 75 | 202 | 1.0 | 3.0 | 0.00 | 0.00 | 0.02 | 43 | 1009.0 |
| 20260506000553 | 76 | 354 | 2.0 | 7.0 | 0.00 | 0.00 | 0.02 | 43 | 1009.0 |
| 20260506000052 | 76 | 273 | 1.0 | 2.0 | 0.00 | 0.00 | 0.02 | 41 | 1009.0 |
| 20260505235553 | 76 | 282 | 1.0 | 2.0 | 0.00 | 0.00 | 0.02 | 41 | 1009.0 |
| 20260505235056 | 76 | 183 | 1.0 | 3.0 | 0.00 | 0.00 | 0.02 | 40 | 1009.0 |
| 20260505234552 | 77 | 218 | 0.0 | 2.0 | 0.00 | 0.00 | 0.02 | 40 | 1009.0 |
| 20260505234052 | 77 | 317 | 1.0 | 2.0 | 0.00 | 0.00 | 0.02 | 39 | 1009.0 |
| 20260505233552 | 77 | 252 | 0.0 | 2.0 | 0.00 | 0.00 | 0.02 | 39 | 1009.0 |
| 20260505233053 | 77 | 291 | 2.0 | 4.0 | 0.00 | 0.00 | 0.02 | 38 | 1009.0 |
| 20260505232553 | 77 | 265 | 1.0 | 2.0 | 0.00 | 0.00 | 0.02 | 38 | 1009.0 |
| 20260505232053 | 78 | 298 | 1.0 | 2.0 | 0.00 | 0.00 | 0.02 | 38 | 1009.0 |
| 20260505231552 | 78 | 211 | 1.0 | 2.0 | 0.00 | 0.00 | 0.02 | 37 | 1009.0 |
| 20260505231052 | 78 | 209 | 2.0 | 4.0 | 0.00 | 0.00 | 0.02 | 36 | 1009.0 |
| 20260505230553 | 78 | 210 | 2.0 | 6.0 | 0.00 | 0.00 | 0.02 | 36 | 1008.0 |
| 20260505230053 | 78 | 247 | 3.0 | 6.0 | 0.00 | 0.00 | 0.02 | 36 | 1008.0 |
| 20260505225556 | 78 | 213 | 2.0 | 4.0 | 0.00 | 0.00 | 0.02 | 37 | 1008.0 |
| 20260505225053 | 78 | 346 | 1.0 | 3.0 | 0.00 | 0.00 | 0.02 | 36 | 1008.0 |
| 20260505224553 | 79 | 209 | 2.0 | 4.0 | 0.00 | 0.00 | 0.02 | 36 | 1008.0 |
| 20260505224053 | 79 | 210 | 2.0 | 4.0 | 0.00 | 0.00 | 0.02 | 35 | 1008.0 |
| 20260505223553 | 79 | 222 | 2.0 | 3.0 | 0.00 | 0.00 | 0.02 | 35 | 1008.0 |
| 20260505223053 | 79 | 246 | 2.0 | 3.0 | 0.00 | 0.00 | 0.02 | 35 | 1008.0 |
| 20260505222552 | 79 | 220 | 2.0 | 4.0 | 0.00 | 0.00 | 0.02 | 35 | 1008.0 |
| 20260505222055 | 79 | 202 | 2.0 | 5.0 | 0.00 | 0.00 | 0.02 | 34 | 1008.0 |
| 20260505221553 | 79 | 274 | 2.0 | 4.0 | 0.00 | 0.00 | 0.02 | 34 | 1008.0 |
| 20260505221053 | 79 | 240 | 2.0 | 3.0 | 0.00 | 0.00 | 0.02 | 34 | 1008.0 |
| 20260505220553 | 79 | 226 | 2.0 | 3.0 | 0.00 | 0.00 | 0.02 | 34 | 1008.0 |
| 20260505220052 | 80 | 166 | 1.0 | 2.0 | 0.00 | 0.00 | 0.02 | 33 | 1008.0 |
| 20260505215553 | 80 | 231 | 1.0 | 2.0 | 0.00 | 0.00 | 0.02 | 33 | 1008.0 |
| 20260505215053 | 80 | 207 | 2.0 | 3.0 | 0.00 | 0.00 | 0.02 | 32 | 1008.0 |
| 20260505214553 | 80 | 150 | 2.0 | 4.0 | 0.00 | 0.00 | 0.02 | 32 | 1008.0 |
| 20260505214053 | 80 | 211 | 2.0 | 5.0 | 0.00 | 0.00 | 0.02 | 32 | 1008.0 |
| 20260505213553 | 81 | 255 | 3.0 | 6.0 | 0.00 | 0.00 | 0.02 | 32 | 1008.0 |
| 20260505213053 | 81 | 267 | 1.0 | 3.0 | 0.00 | 0.00 | 0.02 | 33 | 1008.0 |
| 20260505212553 | 81 | 268 | 4.0 | 6.0 | 0.00 | 0.00 | 0.02 | 32 | 1008.0 |
| 20260505212053 | 82 | 204 | 2.0 | 5.0 | 0.00 | 0.00 | 0.02 | 33 | 1008.0 |
| 20260505211552 | 82 | 305 | 2.0 | 4.0 | 0.00 | 0.00 | 0.02 | 34 | 1008.0 |
| 20260505211052 | 82 | 290 | 3.0 | 9.0 | 0.00 | 0.00 | 0.02 | 33 | 1008.0 |
| 20260505210552 | 82 | 272 | 2.0 | 5.0 | 0.00 | 0.00 | 0.02 | 34 | 1008.0 |
| 20260505210052 | 82 | 210 | 3.0 | 5.0 | 0.00 | 0.00 | 0.02 | 34 | 1008.0 |
| 20260505205552 | 82 | 319 | 4.0 | 5.0 | 0.00 | 0.00 | 0.02 | 33 | 1007.0 |
| 20260505205053 | 82 | 277 | 2.0 | 5.0 | 0.00 | 0.00 | 0.02 | 34 | 1008.0 |
| 20260505204553 | 82 | 219 | 3.0 | 4.0 | 0.00 | 0.00 | 0.02 | 34 | 1008.0 |
| 20260505204053 | 82 | 270 | 3.0 | 4.0 | 0.00 | 0.00 | 0.02 | 34 | 1008.0 |
| 20260505203553 | 82 | 325 | 3.0 | 5.0 | 0.00 | 0.00 | 0.02 | 34 | 1008.0 |
| 20260505203053 | 82 | 238 | 4.0 | 8.0 | 0.00 | 0.00 | 0.02 | 34 | 1008.0 |
| 20260505202552 | 82 | 262 | 2.0 | 4.0 | 0.00 | 0.00 | 0.02 | 34 | 1008.0 |
| 20260505202053 | 83 | 194 | 3.0 | 5.0 | 0.00 | 0.00 | 0.02 | 33 | 1008.0 |
| 20260505201553 | 83 | 264 | 2.0 | 4.0 | 0.00 | 0.00 | 0.02 | 34 | 1008.0 |
| 20260505201053 | 83 | 270 | 3.0 | 6.0 | 0.00 | 0.00 | 0.02 | 35 | 1008.0 |
| 20260505200552 | 83 | 273 | 2.0 | 3.0 | 0.00 | 0.00 | 0.02 | 34 | 1008.0 |
| 20260505200055 | 83 | 275 | 1.0 | 3.0 | 0.00 | 0.00 | 0.02 | 36 | 1008.0 |
| 20260505195553 | 83 | 284 | 1.0 | 2.0 | 0.00 | 0.00 | 0.02 | 36 | 1008.0 |
| 20260505195053 | 83 | 315 | 3.0 | 5.0 | 0.00 | 0.00 | 0.02 | 37 | 1008.0 |
| 20260505194552 | 83 | 274 | 3.0 | 6.0 | 0.00 | 0.00 | 0.02 | 38 | 1008.0 |
| 20260505194052 | 82 | 216 | 2.0 | 4.0 | 0.00 | 0.00 | 0.02 | 38 | 1008.0 |
| 20260505193552 | 82 | 284 | 2.0 | 4.0 | 0.00 | 0.00 | 0.02 | 38 | 1008.0 |
| 20260505193053 | 82 | 209 | 4.0 | 6.0 | 0.00 | 0.00 | 0.02 | 36 | 1008.0 |
| 20260505192553 | 82 | 196 | 3.0 | 6.0 | 0.00 | 0.00 | 0.02 | 36 | 1008.0 |
| 20260505192052 | 82 | 213 | 3.0 | 4.0 | 0.00 | 0.00 | 0.02 | 38 | 1008.0 |
| 20260505191553 | 82 | 261 | 3.0 | 7.0 | 0.00 | 0.00 | 0.02 | 36 | 1008.0 |
| 20260505191055 | 82 | 288 | 4.0 | 7.0 | 0.00 | 0.00 | 0.02 | 34 | 1008.0 |
| 20260505190553 | 82 | 204 | 4.0 | 7.0 | 0.00 | 0.00 | 0.02 | 35 | 1009.0 |
| 20260505190052 | 82 | 191 | 2.0 | 3.0 | 0.00 | 0.00 | 0.02 | 36 | 1009.0 |
| 20260505185552 | 82 | 271 | 2.0 | 3.0 | 0.00 | 0.00 | 0.02 | 38 | 1009.0 |
| 20260505185052 | 82 | 201 | 2.0 | 4.0 | 0.00 | 0.00 | 0.02 | 37 | 1009.0 |
| 20260505184553 | 82 | 177 | 3.0 | 5.0 | 0.00 | 0.00 | 0.02 | 37 | 1009.0 |
| 20260505184052 | 82 | 215 | 5.0 | 8.0 | 0.00 | 0.00 | 0.02 | 36 | 1009.0 |
| 20260505183553 | 82 | 211 | 4.0 | 8.0 | 0.00 | 0.00 | 0.02 | 36 | 1009.0 |
| 20260505183052 | 82 | 223 | 3.0 | 8.0 | 0.00 | 0.00 | 0.02 | 37 | 1009.0 |
| 20260505182553 | 82 | 218 | 2.0 | 4.0 | 0.00 | 0.00 | 0.02 | 36 | 1009.0 |
| 20260505182054 | 82 | 238 | 2.0 | 3.0 | 0.00 | 0.00 | 0.02 | 37 | 1009.0 |
| 20260505181552 | 82 | 209 | 3.0 | 6.0 | 0.00 | 0.00 | 0.02 | 38 | 1009.0 |
| 20260505181056 | 82 | 283 | 2.0 | 4.0 | 0.00 | 0.00 | 0.02 | 39 | 1009.0 |
| 20260505180555 | 82 | 270 | 1.0 | 2.0 | 0.00 | 0.00 | 0.02 | 40 | 1009.0 |
| 20260505180052 | 82 | 216 | 3.0 | 5.0 | 0.00 | 0.00 | 0.02 | 37 | 1009.0 |
| 20260505175553 | 82 | 201 | 3.0 | 6.0 | 0.00 | 0.00 | 0.02 | 39 | 1009.0 |
| 20260505175053 | 82 | 338 | 4.0 | 8.0 | 0.00 | 0.00 | 0.02 | 40 | 1009.0 |
| 20260505174553 | 82 | 315 | 3.0 | 7.0 | 0.00 | 0.00 | 0.02 | 39 | 1009.0 |
| 20260505174053 | 82 | 227 | 2.0 | 3.0 | 0.00 | 0.00 | 0.02 | 40 | 1009.0 |
| 20260505173553 | 81 | 235 | 2.0 | 4.0 | 0.00 | 0.00 | 0.02 | 42 | 1009.0 |
| 20260505173053 | 81 | 291 | 2.0 | 4.0 | 0.00 | 0.00 | 0.02 | 42 | 1009.0 |
| 20260505172553 | 81 | 307 | 3.0 | 7.0 | 0.00 | 0.00 | 0.02 | 40 | 1009.0 |
| 20260505172053 | 81 | 258 | 1.0 | 3.0 | 0.00 | 0.00 | 0.02 | 42 | 1010.0 |
| 20260505171553 | 80 | 230 | 2.0 | 3.0 | 0.00 | 0.00 | 0.02 | 41 | 1010.0 |
| 20260505171053 | 80 | 218 | 1.0 | 2.0 | 0.00 | 0.00 | 0.02 | 43 | 1010.0 |
| 20260505170552 | 80 | 224 | 2.0 | 3.0 | 0.00 | 0.00 | 0.02 | 42 | 1010.0 |
| 20260505170053 | 80 | 243 | 3.0 | 4.0 | 0.00 | 0.00 | 0.02 | 43 | 1010.0 |
| 20260505165553 | 79 | 226 | 2.0 | 3.0 | 0.00 | 0.00 | 0.02 | 44 | 1010.0 |
| 20260505165059 | 79 | 238 | 2.0 | 3.0 | 0.00 | 0.00 | 0.02 | 43 | 1010.0 |
| 20260505164556 | 79 | 242 | 2.0 | 3.0 | 0.00 | 0.00 | 0.02 | 43 | 1010.0 |
| 20260505164053 | 79 | 252 | 2.0 | 3.0 | 0.00 | 0.00 | 0.02 | 44 | 1010.0 |
| 20260505163553 | 79 | 249 | 3.0 | 5.0 | 0.00 | 0.00 | 0.02 | 45 | 1010.0 |
| 20260505163054 | 79 | 198 | 2.0 | 4.0 | 0.00 | 0.00 | 0.02 | 45 | 1010.0 |
| 20260505162553 | 78 | 258 | 1.0 | 2.0 | 0.00 | 0.00 | 0.02 | 46 | 1010.0 |
| 20260505162055 | 78 | 220 | 1.0 | 2.0 | 0.00 | 0.00 | 0.02 | 45 | 1010.0 |
| 20260505161553 | 78 | 218 | 2.0 | 4.0 | 0.00 | 0.00 | 0.02 | 46 | 1010.0 |
| 20260505161053 | 77 | 278 | 2.0 | 3.0 | 0.00 | 0.00 | 0.02 | 47 | 1010.0 |
| 20260505160554 | 77 | 200 | 2.0 | 4.0 | 0.00 | 0.00 | 0.02 | 45 | 1010.0 |
| 20260505153054 | 75 | 293 | 2.0 | 2.0 | 0.00 | 0.00 | 0.02 | 50 | 1011.0 |
| 20260505152556 | 75 | 213 | 1.0 | 2.0 | 0.00 | 0.00 | 0.02 | 50 | 1011.0 |
| 20260505152055 | 75 | 281 | 2.0 | 3.0 | 0.00 | 0.00 | 0.02 | 50 | 1011.0 |
| 20260505151555 | 74 | 179 | 2.0 | 4.0 | 0.00 | 0.00 | 0.02 | 51 | 1011.0 |
| 20260505151053 | 74 | 237 | 1.0 | 2.0 | 0.00 | 0.00 | 0.02 | 52 | 1011.0 |
| 20260505150553 | 74 | 96 | 1.0 | 2.0 | 0.00 | 0.00 | 0.02 | 51 | 1011.0 |
| 20260505140553 | 69 | 332 | 1.0 | 2.0 | 0.00 | 0.00 | 0.02 | 60 | 1012.0 |
| 20260505124553 | 65 | 264 | 1.0 | 3.0 | 0.00 | 0.00 | 0.02 | 69 | 1011.0 |
| 20260505124053 | 65 | 260 | 2.0 | 4.0 | 0.00 | 0.00 | 0.02 | 67 | 1012.0 |
| 20260505123552 | 65 | 241 | 0.0 | 2.0 | 0.00 | 0.00 | 0.02 | 70 | 1011.0 |
| 20260505123053 | 65 | 257 | 1.0 | 2.0 | 0.00 | 0.00 | 0.02 | 70 | 1011.0 |
| 20260505122552 | 65 | 0 | 0.0 | 0.0 | 0.00 | 0.00 | 0.02 | 70 | 1011.0 |
| 20260505122053 | 64 | 265 | 0.0 | 0.0 | 0.00 | 0.00 | 0.02 | 71 | 1011.0 |
| 20260505121553 | 63 | 212 | 0.0 | 2.0 | 0.00 | 0.00 | 0.02 | 73 | 1011.0 |
| 20260505121052 | 62 | 225 | 0.0 | 0.0 | 0.00 | 0.00 | 0.02 | 76 | 1011.0 |
| 20260505120553 | 60 | 206 | 0.0 | 2.0 | 0.00 | 0.00 | 0.02 | 77 | 1011.0 |
| 20260505120053 | 59 | 198 | 0.0 | 1.0 | 0.00 | 0.00 | 0.02 | 80 | 1011.0 |
| 20260505115553 | 58 | 274 | 1.0 | 2.0 | 0.00 | 0.00 | 0.02 | 80 | 1011.0 |
| 20260505115052 | 57 | 190 | 1.0 | 2.0 | 0.00 | 0.00 | 0.02 | 87 | 1011.0 |
| 20260505114553 | 56 | 267 | 0.0 | 1.0 | 0.00 | 0.00 | 0.02 | 90 | 1011.0 |
| 20260505114053 | 55 | 0 | 0.0 | 0.0 | 0.00 | 0.00 | 0.02 | 91 | 1011.0 |
| 20260505113553 | 55 | 0 | 0.0 | 0.0 | 0.00 | 0.00 | 0.02 | 91 | 1011.0 |
| 20260505113053 | 54 | 133 | 0.0 | 1.0 | 0.00 | 0.00 | 0.02 | 92 | 1011.0 |
| 20260505112552 | 54 | 268 | 0.0 | 0.0 | 0.00 | 0.00 | 0.02 | 92 | 1011.0 |
| 20260505112055 | 54 | 0 | 0.0 | 0.0 | 0.00 | 0.00 | 0.01 | 92 | 1011.0 |
| 20260505111552 | 54 | 234 | 1.0 | 1.0 | 0.00 | 0.00 | 0.01 | 92 | 1011.0 |
| 20260505111052 | 54 | 0 | 0.0 | 0.0 | 0.00 | 0.00 | 0.01 | 91 | 1011.0 |
| 20260505110553 | 54 | 0 | 0.0 | 0.0 | 0.00 | 0.00 | 0.01 | 91 | 1011.0 |
| 20260505102052 | 55 | 237 | 1.0 | 1.0 | 0.05 | 0.00 | 0.01 | 85 | 1011.0 |
| 20260505101552 | 56 | 213 | 2.0 | 2.0 | 0.01 | 0.00 | 0.01 | 82 | 1011.0 |
| 20260505101053 | 56 | 210 | 1.0 | 1.0 | 0.02 | 0.00 | 0.00 | 78 | 1011.0 |
| 20260505100553 | 56 | 241 | 1.0 | 2.0 | 0.00 | 0.00 | 0.00 | 77 | 1011.0 |
| 20260505100053 | 56 | 199 | 0.0 | 0.0 | 0.00 | 0.00 | 0.00 | 77 | 1011.0 |
| 20260505095553 | 56 | 228 | 1.0 | 2.0 | 0.00 | 0.00 | 0.00 | 76 | 1011.0 |
| 20260505095053 | 56 | 221 | 1.0 | 2.0 | 0.00 | 0.00 | 0.00 | 74 | 1011.0 |
| 20260505094552 | 57 | 184 | 0.0 | 1.0 | 0.00 | 0.00 | 0.00 | 74 | 1011.0 |
| 20260505094052 | 57 | 0 | 0.0 | 0.0 | 0.00 | 0.00 | 0.00 | 73 | 1011.0 |
| 20260505093552 | 57 | 196 | 1.0 | 3.0 | 0.00 | 0.00 | 0.00 | 73 | 1011.0 |
| 20260505093055 | 57 | 210 | 1.0 | 2.0 | 0.00 | 0.00 | 0.00 | 74 | 1011.0 |
| 20260505092553 | 56 | 347 | 0.0 | 0.0 | 0.00 | 0.00 | 0.00 | 74 | 1011.0 |
| 20260505092052 | 56 | 0 | 0.0 | 0.0 | 0.00 | 0.00 | 0.00 | 74 | 1011.0 |
| 20260505091552 | 56 | 223 | 0.0 | 1.0 | 0.00 | 0.00 | 0.00 | 75 | 1010.0 |
| 20260505091053 | 55 | 255 | 1.0 | 2.0 | 0.00 | 0.00 | 0.00 | 75 | 1010.0 |
| 20260505090552 | 54 | 236 | 1.0 | 2.0 | 0.00 | 0.00 | 0.00 | 79 | 1010.0 |
| 20260505090053 | 54 | 214 | 1.0 | 1.0 | 0.00 | 0.00 | 0.00 | 79 | 1010.0 |
| 20260505085552 | 55 | 0 | 0.0 | 0.0 | 0.00 | 0.00 | 0.00 | 79 | 1010.0 |
| 20260505085053 | 55 | 0 | 0.0 | 0.0 | 0.00 | 0.00 | 0.00 | 79 | 1010.0 |